Dallas Addison, TX

7:50 AM CST on November 22, 2017 (GMT -0600)
Addison

Weather History for KADS - January, 2013

Change the Weather History Date:

Wednesday, January 23, 2013

  Actual Average Record
Temperature  
Mean Temperature 62 °F -  
Max Temperature 71 °F 55 °F 77 °F (2009)
Min Temperature 53 °F 38 °F 21 °F (2003)
Degree Days  
Heating Degree Days 3    
Growing Degree Days 12 (Base 50)    
Moisture  
Dew Point 49 °F    
Average Humidity 68    
Maximum Humidity 77    
Minimum Humidity 49    
Precipitation  
Precipitation 0.00 in - - ()
Sea Level Pressure  
Sea Level Pressure 30.20 in    
Wind  
Wind Speed 8 mph (South)    
Max Wind Speed 14 mph    
Max Gust Speed 18 mph    
Visibility 11 miles    
Events      
Averages and records for this station are not official NWS values.
T = Trace of Precipitation, MM = Missing Value Source: NWS Daily Summary

Daily Weather History Graph

Daily Weather History Graph

Search for Another Location

Airport or City:

Trip Planner

Search our weather history database for the weather conditions in past years. The results will help you decide how hot, cold, wet, or windy it might be!

Date:

Astronomy

Jan. 23, 2013 Rise Set
Actual Time 7:27 AM CST 5:51 PM CST
Civil Twilight 7:01 AM CST 6:17 PM CST
Nautical Twilight 6:31 AM CST 6:47 PM CST
Astronomical Twilight 6:01 AM CST 7:17 PM CST
Moon 3:05 PM CST (1/23) 4:37 AM CST (1/23)
Length of Visible Light 11h 16m
Length of Day
10h 23m
Waxing Gibbous, 89% of the Moon is Illuminated
Jan 23
Waxing Gibbous
Jan 26
Full
Feb 3
Last Quarter
Feb 10
New
Feb 17
First Quarter

Hourly Weather History & Observations

Time (CST) Temp. Dew Point Humidity Pressure Visibility Wind Dir Wind Speed Gust Speed Precip Events Conditions
12:15 AM 53.6 °F 44.6 °F 72% 30.21 in 10.0 mi SE 8.1 mph - N/A   Clear
12:35 AM 53.6 °F 44.6 °F 72% 30.21 in 10.0 mi SSE 5.8 mph - N/A   Clear
12:55 AM 53.6 °F 46.4 °F 77% 30.21 in 10.0 mi South 8.1 mph - N/A   Clear
1:15 AM 55.4 °F 46.4 °F 72% 30.21 in 10.0 mi South 6.9 mph - N/A   Clear
1:35 AM 53.6 °F 46.4 °F 77% 30.21 in 10.0 mi South 6.9 mph - N/A   Clear
1:55 AM 55.4 °F 46.4 °F 72% 30.21 in 10.0 mi South 6.9 mph - N/A   Clear
2:15 AM 55.4 °F 46.4 °F 72% 30.21 in 10.0 mi South 6.9 mph - N/A   Clear
2:35 AM 55.4 °F 46.4 °F 72% 30.21 in 10.0 mi SSW 6.9 mph - N/A   Clear
2:55 AM 55.4 °F 46.4 °F 72% 30.22 in 10.0 mi SSW 5.8 mph - N/A   Clear
3:15 AM 55.4 °F 46.4 °F 72% 30.22 in 10.0 mi SSW 5.8 mph - N/A   Clear
3:35 AM 55.4 °F 46.4 °F 72% 30.22 in 10.0 mi SW 3.5 mph - N/A   Clear
3:55 AM 55.4 °F 46.4 °F 72% 30.22 in 10.0 mi SSW 5.8 mph - N/A   Clear
4:15 AM 53.6 °F 46.4 °F 77% 30.23 in 10.0 mi SSW 5.8 mph - N/A   Clear
4:35 AM 53.6 °F 46.4 °F 77% 30.23 in 10.0 mi SSW 4.6 mph - N/A   Mostly Cloudy
4:55 AM 53.6 °F 46.4 °F 77% 30.24 in 10.0 mi SSW 5.8 mph - N/A   Overcast
5:47 AM 53.6 °F 46.4 °F 77% 30.23 in 13.0 mi South 9.2 mph - N/A   Mostly Cloudy
6:47 AM 53.6 °F 46.4 °F 77% 30.24 in 13.0 mi South 8.1 mph - N/A   Scattered Clouds
7:47 AM 53.6 °F 46.4 °F 77% 30.25 in 13.0 mi South 6.9 mph - N/A   Partly Cloudy
8:47 AM 55.4 °F 48.2 °F 77% 30.25 in 10.0 mi South 8.1 mph - N/A   Scattered Clouds
9:47 AM 59.0 °F 50.0 °F 72% 30.26 in 10.0 mi SSW 11.5 mph 18.4 mph N/A   Scattered Clouds
10:48 AM 62.6 °F 50.0 °F 63% 30.28 in 13.0 mi South 11.5 mph 16.1 mph N/A   Clear
11:47 AM 66.2 °F 51.8 °F 60% 30.26 in 15.0 mi SSW 8.1 mph 16.1 mph N/A   Clear
12:48 PM 69.8 °F 50.0 °F 49% 30.23 in 15.0 mi WSW 5.8 mph - N/A   Clear
1:47 PM 69.8 °F 50.0 °F 49% 30.19 in 13.0 mi SSW 9.2 mph 16.1 mph N/A   Clear
2:50 PM 71.6 °F 51.8 °F 50% 30.17 in 13.0 mi South 9.2 mph 16.1 mph N/A   Clear
3:47 PM 71.6 °F 51.8 °F 50% 30.16 in 13.0 mi South 13.8 mph 18.4 mph N/A   Scattered Clouds
4:47 PM 71.6 °F 51.8 °F 50% 30.15 in 13.0 mi South 12.7 mph 18.4 mph N/A   Scattered Clouds
5:48 PM 69.8 °F 51.8 °F 53% 30.15 in 13.0 mi South 9.2 mph - N/A   Scattered Clouds
6:47 PM 68.0 °F 53.6 °F 60% 30.14 in 13.0 mi SSE 9.2 mph 16.1 mph N/A   Clear
7:47 PM 66.2 °F 53.6 °F 64% 30.14 in 13.0 mi South 10.4 mph 18.4 mph N/A   Clear
9:15 PM 64.4 °F 51.8 °F 64% 30.16 in 10.0 mi South 8.1 mph - N/A   Clear
9:35 PM 64.4 °F 51.8 °F 64% 30.16 in 10.0 mi South 6.9 mph - N/A   Clear
9:47 PM 64.4 °F 53.6 °F 68% 30.17 in 13.0 mi SSE 13.8 mph - N/A   Clear
9:55 PM 64.4 °F 51.8 °F 64% 30.16 in 10.0 mi South 8.1 mph - N/A   Clear
10:15 PM 64.4 °F 53.6 °F 68% 30.15 in 10.0 mi South 8.1 mph - N/A   Clear
10:35 PM 62.6 °F 53.6 °F 72% 30.16 in 10.0 mi South 6.9 mph - N/A   Clear
10:55 PM 62.6 °F 53.6 °F 72% 30.15 in 10.0 mi South 5.8 mph - N/A   Clear
11:15 PM 62.6 °F 53.6 °F 72% 30.15 in 10.0 mi South 5.8 mph - N/A   Clear
11:35 PM 62.6 °F 53.6 °F 72% 30.16 in 10.0 mi SSW 3.5 mph - N/A   Clear
11:55 PM 60.8 °F 53.6 °F 77% 30.15 in 10.0 mi SSW 5.8 mph - N/A   Clear